MEA418 LSGG-LIRF

Flight info

Callsign MEA418
Flight time N/A
Altitude 37000
Route MEDAM DCT NITAM DCT MOGBO DCT ELB/N0450F360 DCT ELKAP
Aircraft A20N/M-SDE2E3FGHIRWXY/LB1

Departure

Time 2026-05-01 13:22
Airport Geneva International Airport (LSGG)

Arrival

Time N/A
Airport Rome–Fiumicino Leonardo da Vinci International Airport (LIRF)
Time Latitude Longitude Altitude Speed Heading
2026-05-01 13:01 46.23131 6.10701 1429 ft 0 kts 135°
2026-05-01 13:12 46.23135 6.10695 1402 ft 1 kts 135°
2026-05-01 13:12 46.23141 6.10687 1411 ft 1 kts 135°
2026-05-01 13:12 46.23147 6.10678 1409 ft 1 kts 135°
2026-05-01 13:12 46.23152 6.10670 1409 ft 1 kts 140°
2026-05-01 13:13 46.23159 6.10662 1409 ft 1 kts 169°
2026-05-01 13:13 46.23168 6.10662 1405 ft 1 kts 207°
2026-05-01 13:13 46.23170 6.10663 1405 ft 0 kts 215°
2026-05-01 13:16 46.23167 6.10661 1411 ft 0 kts 212°
2026-05-01 13:17 46.23115 6.10581 1410 ft 10 kts 226°
2026-05-01 13:17 46.23057 6.10496 1410 ft 13 kts 225°
2026-05-01 13:18 46.22962 6.10304 1405 ft 10 kts 302°
2026-05-01 13:18 46.23019 6.10214 1408 ft 14 kts 314°
2026-05-01 13:18 46.23044 6.10114 1410 ft 11 kts 244°
2026-05-01 13:18 46.22976 6.10010 1409 ft 17 kts 226°
2026-05-01 13:19 46.22890 6.09880 1418 ft 18 kts 225°
2026-05-01 13:19 46.22805 6.09759 1414 ft 16 kts 225°
2026-05-01 13:19 46.22659 6.09546 1420 ft 17 kts 225°
2026-05-01 13:20 46.22572 6.09406 1423 ft 18 kts 236°
2026-05-01 13:20 46.22556 6.09223 1423 ft 21 kts 284°
2026-05-01 13:20 46.22620 6.09167 1425 ft 11 kts 25°
2026-05-01 13:21 46.22681 6.09248 1426 ft 7 kts 45°
2026-05-01 13:21 46.22899 6.09568 1418 ft 95 kts 45°
2026-05-01 13:21 46.23569 6.10547 1407 ft 173 kts 45°
2026-05-01 13:21 46.24526 6.11939 1727 ft 205 kts 45°
2026-05-01 13:22 46.25530 6.13397 2445 ft 212 kts 45°
2026-05-01 13:22 46.26591 6.14937 3286 ft 224 kts 45°
2026-05-01 13:22 46.27709 6.16582 4111 ft 225 kts 45°
2026-05-01 13:22 46.28831 6.18243 4846 ft 237 kts 45°
2026-05-01 13:23 46.30005 6.19972 5405 ft 247 kts 45°
2026-05-01 13:23 46.31245 6.21776 5986 ft 256 kts 45°
2026-05-01 13:23 46.32503 6.23600 6455 ft 259 kts 44°
2026-05-01 13:23 46.33790 6.25440 6714 ft 260 kts 44°
2026-05-01 13:24 46.35062 6.27243 6732 ft 263 kts 46°
2026-05-01 13:24 46.36235 6.29329 6999 ft 270 kts 57°
2026-05-01 13:24 46.37053 6.31797 7578 ft 277 kts 73°
2026-05-01 13:25 46.36766 6.37361 8755 ft 291 kts 122°
2026-05-01 13:25 46.35300 6.39326 9207 ft 291 kts 156°
2026-05-01 13:25 46.33317 6.39757 9670 ft 293 kts 188°
2026-05-01 13:25 46.31395 6.38776 10161 ft 295 kts 207°
2026-05-01 13:26 46.29632 6.37241 10759 ft 300 kts 211°
2026-05-01 13:26 46.27812 6.35608 11421 ft 324 kts 211°
2026-05-01 13:26 46.25794 6.33935 12129 ft 342 kts 207°
2026-05-01 13:26 46.23637 6.32408 12847 ft 348 kts 203°
2026-05-01 13:27 46.21355 6.31207 13603 ft 351 kts 195°
2026-05-01 13:27 46.18951 6.30460 14355 ft 356 kts 188°
2026-05-01 13:27 46.13978 6.29916 15751 ft 361 kts 181°
2026-05-01 13:28 46.08940 6.29835 17022 ft 368 kts 179°
2026-05-01 13:28 46.06368 6.29852 17662 ft 371 kts 179°
2026-05-01 13:29 46.01153 6.29905 18811 ft 378 kts 179°
2026-05-01 13:29 45.95849 6.29979 20047 ft 386 kts 180°
2026-05-01 13:30 45.85050 6.31181 22275 ft 398 kts 158°
2026-05-01 13:31 45.80359 6.35365 23412 ft 405 kts 141°
2026-05-01 13:31 45.74018 6.43617 25004 ft 416 kts 135°
2026-05-01 13:32 45.69738 6.49281 25908 ft 422 kts 142°